Change the Weather History Date:

Saturday, August 16, 2014

  Actual Average Record
Temperature  
Mean Temperature 79 °F 80 °F  
Max Temperature 93 °F 91 °F 99 °F (2007)
Min Temperature 64 °F 70 °F 59 °F (2011)
Cooling Degree Days 14 15  
Month to date cooling degree days 248 255  
Year to date cooling degree days 1463 1415  
Since 1 June cooling degree days 1141 1128  
Growing Degree Days 28 (Base 50)    
Moisture  
Dew Point 66 °F    
Average Humidity 67    
Maximum Humidity 93    
Minimum Humidity 41    
Precipitation  
Precipitation 0.00 in 0.16 in 0.51 in (2010)
Month to date precipitation 2.25 2.73  
Year to date precipitation 37.22 36.06  
Sea Level Pressure  
Sea Level Pressure 30.02 in    
Wind  
Wind Speed 3 mph (WSW)    
Max Wind Speed 12 mph    
Max Gust Speed 17 mph    
Visibility 9 miles    
Events      
T = Trace of Precipitation, MM = Missing Value Source: NWS Daily Summary

Daily Weather History Graph

Daily Weather History Graph

Search for Another Location

Airport or City:

Trip Planner

Search our weather history database for the weather conditions in past years. The results will help you decide how hot, cold, wet, or windy it might be!

Date:

Astronomy

Aug. 16, 2014 Rise Set
Actual Time 6:09 AM CDT 7:26 PM CDT
Civil Twilight 5:43 AM CDT 7:52 PM CDT
Nautical Twilight 5:13 AM CDT 8:22 PM CDT
Astronomical Twilight 4:41 AM CDT 8:54 PM CDT
Moon 11:37 PM CDT (8/16) 12:28 PM CDT (8/16)
Length of Visible Light 14h 08m
Length of Day
13h 17m
Waning Gibbous, 58% of the Moon is Illuminated
Aug 16
Waning Gibbous
Aug 17
Last Quarter
Aug 25
New
Sep 2
First Quarter
Sep 8
Full

Hourly Weather History & Observations

Time (CDT) Temp. Heat Index Dew Point Humidity Pressure Visibility Wind Dir Wind Speed Gust Speed Precip Events Conditions
12:53 AM 66.9 °F - 64.9 °F 93% 29.99 in 7.0 mi Calm Calm - N/A   Clear
1:53 AM 66.9 °F - 64.0 °F 90% 29.99 in 8.0 mi North - - N/A   Clear
2:53 AM 66.0 °F - 64.0 °F 93% 29.99 in 8.0 mi Calm Calm - N/A   Clear
3:53 AM 64.9 °F - 63.0 °F 93% 29.99 in 7.0 mi Calm Calm - N/A   Clear
4:53 AM 64.0 °F - 62.1 °F 93% 30.00 in 6.0 mi Calm Calm - N/A   Clear
5:53 AM 64.0 °F - 62.1 °F 93% 30.01 in 6.0 mi Calm Calm - N/A   Clear
6:53 AM 66.0 °F - 63.0 °F 90% 30.03 in 8.0 mi Calm Calm - N/A   Clear
7:53 AM 72.0 °F - 66.0 °F 81% 30.05 in 10.0 mi Calm Calm - N/A   Clear
8:53 AM 79.0 °F - 66.9 °F 66% 30.06 in 10.0 mi Calm Calm - N/A   Clear
9:53 AM 86.0 °F 87.6 °F 64.9 °F 49% 30.06 in 10.0 mi NW 6.9 mph - N/A   Clear
10:53 AM 88.0 °F 88.7 °F 63.0 °F 43% 30.07 in 10.0 mi WSW 6.9 mph - N/A   Clear
11:53 AM 88.0 °F 88.4 °F 62.1 °F 42% 30.06 in 10.0 mi WSW 6.9 mph - N/A   Partly Cloudy
12:53 PM 91.0 °F 93.0 °F 64.9 °F 42% 30.04 in 10.0 mi WSW 5.8 mph - N/A   Partly Cloudy
1:53 PM 90.0 °F 90.6 °F 63.0 °F 40% 30.04 in 10.0 mi WNW 3.5 mph - N/A   Scattered Clouds
2:53 PM 91.0 °F 93.0 °F 64.9 °F 42% 30.02 in 10.0 mi Variable 5.8 mph - N/A   Mostly Cloudy
3:53 PM 91.0 °F 93.0 °F 64.9 °F 42% 30.01 in 10.0 mi West 5.8 mph - N/A   Clear
4:53 PM 91.0 °F 92.6 °F 64.0 °F 41% 30.00 in 10.0 mi Variable 6.9 mph - N/A   Clear
5:53 PM 90.0 °F 91.3 °F 64.0 °F 42% 30.00 in 10.0 mi Variable 4.6 mph - N/A   Clear
6:53 PM 84.9 °F 90.1 °F 71.1 °F 63% 30.00 in 10.0 mi South 3.5 mph - N/A   Clear
7:53 PM 79.0 °F - 72.0 °F 79% 30.01 in 10.0 mi Calm Calm - N/A   Clear
8:53 PM 77.0 °F - 71.1 °F 82% 30.02 in 10.0 mi Calm Calm - N/A   Clear
9:53 PM 78.1 °F - 70.0 °F 76% 30.03 in 10.0 mi Calm Calm - N/A   Mostly Cloudy
10:53 PM 75.0 °F - 70.0 °F 84% 30.03 in 9.0 mi SSW 4.6 mph - N/A   Clear
11:53 PM 75.9 °F - 71.1 °F 85% 30.04 in 9.0 mi Calm Calm - N/A   Clear